Location: Bun Machan
(52.1403°N, 7.3744°W)
Time: 02:12:24
(UTC+00:00)

Cosmos 921 Rocket - Pass Details

Date: 14 July 2020
Orbit: 572 x 632 km, 75.8° (Epoch: 04 August)

Event Time Altitude Azimuth Distance (km) Brightness Sun altitude
Rises 02:03:50 0° 341° (NNW) 2,912 7.3 -13.7°
Reaches altitude 10° 02:06:11 10° 347° (NNW) 1,993 6.5 -13.6°
Maximum altitude 02:10:29 47° 61° (ENE) 818 4.0 -13.4°
Drops below altitude 10° 02:14:40 10° 136° (SE) 1,943 5.4 -13.1°
Sets 02:16:56 0° 143° (SE) 2,831 6.2 -13.0°
